| time (UTC) | temp F | wind direction | speed MPH | gust MPH | rain 1hr in | rain 24hr in | rain mn in | humidity % | barometer mb |
| 20260505074554 | 51 | 215 | 1.0 | 8.0 | 0.00 | 0.00 | 0.00 | 85 | 1009.6 |
| 20260505073057 | 51 | 149 | 1.0 | 7.0 | 0.00 | 0.00 | 0.00 | 84 | 1009.6 |
| 20260505071555 | 51 | 129 | 0.0 | 9.0 | 0.00 | 0.00 | 0.00 | 84 | 1009.6 |
| 20260505070051 | 51 | 196 | 1.0 | 10.0 | 0.00 | 0.00 | 0.00 | 84 | 1009.6 |
| 20260505064549 | 51 | 172 | 0.0 | 8.0 | 0.00 | 0.00 | 0.00 | 83 | 1009.7 |
| 20260505063048 | 51 | 147 | 1.0 | 6.0 | 0.00 | 0.00 | 0.00 | 82 | 1009.7 |
| 20260505061548 | 51 | 161 | 0.0 | 6.0 | 0.00 | 0.00 | 0.00 | 82 | 1009.8 |
| 20260505060045 | 52 | 140 | 0.0 | 4.0 | 0.00 | 0.00 | 0.00 | 81 | 1009.9 |
| 20260505054545 | 52 | 207 | 1.0 | 5.0 | 0.00 | 0.00 | 0.00 | 80 | 1009.8 |
| 20260505053046 | 52 | 184 | 0.0 | 11.0 | 0.00 | 0.00 | 0.00 | 80 | 1009.7 |
| 20260505051539 | 52 | 279 | 1.0 | 7.0 | 0.00 | 0.00 | 0.00 | 79 | 1009.8 |
| 20260505041531 | 53 | 267 | 2.0 | 8.0 | 0.00 | 0.00 | 0.00 | 75 | 1009.9 |
| 20260505040029 | 53 | 156 | 3.0 | 12.0 | 0.00 | 0.00 | 0.00 | 74 | 1009.8 |
| 20260505034528 | 54 | 221 | 1.0 | 11.0 | 0.00 | 0.00 | 0.00 | 73 | 1009.9 |
| 20260505033042 | 54 | 151 | 2.0 | 7.0 | 0.00 | 0.00 | 0.00 | 71 | 1009.8 |
| 20260505031527 | 54 | 104 | 1.0 | 7.0 | 0.00 | 0.00 | 0.00 | 70 | 1009.8 |
| 20260505030029 | 55 | 209 | 3.0 | 9.0 | 0.00 | 0.00 | 0.00 | 69 | 1010.0 |
| 20260505024528 | 55 | 196 | 1.0 | 12.0 | 0.00 | 0.00 | 0.00 | 69 | 1009.9 |
| 20260505023024 | 55 | 174 | 2.0 | 10.0 | 0.00 | 0.00 | 0.00 | 68 | 1009.9 |
| 20260505021523 | 55 | 159 | 4.0 | 10.0 | 0.00 | 0.00 | 0.00 | 68 | 1009.9 |
| 20260505020024 | 56 | 188 | 2.0 | 9.0 | 0.00 | 0.00 | 0.00 | 66 | 1009.9 |
| 20260505014522 | 56 | 167 | 3.0 | 8.0 | 0.00 | 0.00 | 0.00 | 65 | 1009.9 |
| 20260505013021 | 56 | 179 | 2.0 | 9.0 | 0.00 | 0.00 | 0.00 | 63 | 1009.8 |
| 20260505011522 | 57 | 138 | 1.0 | 8.0 | 0.00 | 0.00 | 0.00 | 62 | 1009.5 |
| 20260505010021 | 57 | 190 | 2.0 | 13.0 | 0.00 | 0.00 | 0.00 | 60 | 1009.3 |
| 20260505004536 | 57 | 182 | 4.0 | 9.0 | 0.00 | 0.00 | 0.00 | 58 | 1008.9 |
| 20260505003019 | 58 | 207 | 5.0 | 12.0 | 0.00 | 0.00 | 0.00 | 56 | 1008.6 |
| 20260505001521 | 59 | 184 | 3.0 | 9.0 | 0.00 | 0.00 | 0.00 | 54 | 1008.1 |
| 20260505000022 | 60 | 186 | 2.0 | 11.0 | 0.00 | 0.00 | 0.00 | 53 | 1008.1 |
| 20260504234527 | 61 | 157 | 2.0 | 10.0 | 0.00 | 0.00 | 0.00 | 51 | 1007.9 |
| 20260504233017 | 62 | 210 | 4.0 | 16.0 | 0.00 | 0.00 | 0.00 | 49 | 1007.7 |
| 20260504231532 | 62 | 211 | 5.0 | 18.0 | 0.00 | 0.00 | 0.00 | 47 | 1007.3 |
| 20260504230016 | 63 | 227 | 2.0 | 9.0 | 0.00 | 0.00 | 0.00 | 48 | 1007.0 |
| 20260504224516 | 64 | 193 | 6.0 | 14.0 | 0.00 | 0.00 | 0.00 | 47 | 1006.8 |
| 20260504223016 | 64 | 204 | 5.0 | 16.0 | 0.00 | 0.00 | 0.00 | 46 | 1006.8 |
| 20260504221513 | 65 | 196 | 5.0 | 12.0 | 0.00 | 0.00 | 0.00 | 46 | 1006.5 |
| 20260504220013 | 66 | 214 | 5.0 | 12.0 | 0.00 | 0.00 | 0.00 | 44 | 1006.5 |
| 20260504214516 | 66 | 157 | 6.0 | 14.0 | 0.00 | 0.00 | 0.00 | 44 | 1006.3 |
| 20260504213012 | 67 | 190 | 4.0 | 20.0 | 0.00 | 0.00 | 0.00 | 42 | 1006.3 |
| 20260504211513 | 68 | 186 | 3.0 | 15.0 | 0.00 | 0.00 | 0.00 | 41 | 1006.2 |
| 20260504210014 | 68 | 180 | 5.0 | 18.0 | 0.00 | 0.00 | 0.00 | 40 | 1006.3 |
| 20260504204513 | 68 | 188 | 4.0 | 14.0 | 0.00 | 0.00 | 0.00 | 40 | 1006.1 |
| 20260504203013 | 69 | 174 | 6.0 | 12.0 | 0.00 | 0.00 | 0.00 | 35 | 1006.2 |
| 20260504201508 | 70 | 119 | 5.0 | 11.0 | 0.00 | 0.00 | 0.00 | 32 | 1006.2 |
| 20260504200013 | 70 | 198 | 4.0 | 15.0 | 0.00 | 0.00 | 0.00 | 31 | 1006.1 |
| 20260504194510 | 70 | 178 | 3.0 | 16.0 | 0.00 | 0.00 | 0.00 | 35 | 1006.1 |
| 20260504193015 | 71 | 213 | 2.0 | 13.0 | 0.00 | 0.00 | 0.00 | 33 | 1006.2 |
| 20260504191507 | 71 | 55 | 2.0 | 14.0 | 0.00 | 0.00 | 0.00 | 33 | 1006.2 |
| 20260504190009 | 71 | 189 | 3.0 | 12.0 | 0.00 | 0.00 | 0.00 | 31 | 1006.3 |
| 20260504184503 | 72 | 343 | 1.0 | 8.0 | 0.00 | 0.00 | 0.00 | 35 | 1006.4 |
| 20260504183001 | 70 | 274 | 2.0 | 13.0 | 0.00 | 0.00 | 0.00 | 36 | 1006.5 |
| 20260504181600 | 70 | 198 | 5.0 | 11.0 | 0.00 | 0.00 | 0.00 | 30 | 1006.6 |
| 20260504180100 | 71 | 200 | 7.0 | 12.0 | 0.00 | 0.00 | 0.00 | 33 | 1006.8 |
| 20260504174557 | 70 | 304 | 4.0 | 14.0 | 0.00 | 0.00 | 0.00 | 33 | 1006.8 |
| 20260504173057 | 69 | 183 | 3.0 | 12.0 | 0.00 | 0.00 | 0.00 | 36 | 1006.8 |
| 20260504171555 | 69 | 178 | 4.0 | 13.0 | 0.00 | 0.00 | 0.00 | 32 | 1006.7 |
| 20260504081522 | 45 | 296 | 0.0 | 1.0 | 0.00 | 0.00 | 0.00 | 66 | 1009.7 |